• In Russia
  • List of Countries
  • For 7 days
  • Water Temperature
  • Satellite Maps
  • Weather Map
  • Weather Widgets
  • user-avatar
    Login

    Hourly Weather Berat

    Today, 22 June, Thursday

    Time Temperature Precipitation Wind Pressure Humidity
    00:00 +19°C° 0 mm 1 mps 745 mmHg 80%
    01:00 +19°C° 0 mm 1 mps 744 mmHg 80%
    02:00 +19°C° 0 mm 1 mps 745 mmHg 81%
    03:00 +19°C° 0 mm 1 mps 745 mmHg 82%
    04:00 +18°C° 0 mm 1 mps 745 mmHg 83%
    05:00 +21°C° 0 mm 1 mps 745 mmHg 73%
    06:00 +24°C° 0 mm 1 mps 745 mmHg 63%
    07:00 +26°C° 0 mm 0 mps 745 mmHg 52%
    08:00 +29°C° 0 mm 1 mps 746 mmHg 47%
    09:00 +31°C° 0 mm 1 mps 746 mmHg 42%
    10:00 +32°C° 0 mm 2 mps 746 mmHg 36%
    11:00 +34°C° 0 mm 2 mps 746 mmHg 35%
    12:00 +34°C° 0 mm 2 mps 746 mmHg 33%
    13:00 +35°C° 0 mm 3 mps 746 mmHg 32%
    14:00 +34°C° 0 mm 3 mps 746 mmHg 35%
    15:00 +33°C° 0 mm 3 mps 745 mmHg 38%
    16:00 +31°C° 0 mm 3 mps 745 mmHg 41%
    17:00 +29°C° 0 mm 2 mps 745 mmHg 50%
    18:00 +27°C° 0 mm 2 mps 745 mmHg 59%
    19:00 +24°C° 0 mm 1 mps 745 mmHg 68%
    20:00 +23°C° 0 mm 1 mps 746 mmHg 71%
    21:00 +22°C° 0 mm 1 mps 746 mmHg 74%
    22:00 +19°C° 0 mm 0 mps 746 mmHg 77%
    23:00 +19°C° 0 mm 0 mps 746 mmHg 78%

    Tomorrow, 23 June, Friday

    Time Temperature Precipitation Wind Pressure Humidity
    00:00 +18°C° 0 mm 0 mps 746 mmHg 78%
    01:00 +18°C° 0 mm 0 mps 746 mmHg 79%
    02:00 +18°C° 0 mm 0 mps 746 mmHg 80%
    03:00 +18°C° 0 mm 0 mps 746 mmHg 81%
    04:00 +17°C° 0 mm 0 mps 746 mmHg 82%
    05:00 +20°C° 0 mm 0 mps 746 mmHg 71%
    06:00 +23°C° 0 mm 0 mps 746 mmHg 61%
    07:00 +26°C° 0 mm 0 mps 747 mmHg 51%
    08:00 +30°C° 0 mm 1 mps 747 mmHg 45%
    09:00 +31°C° 0 mm 1 mps 747 mmHg 40%
    10:00 +34°C° 0 mm 2 mps 747 mmHg 34%
    11:00 +34°C° 0 mm 2 mps 746 mmHg 33%
    12:00 +35°C° 0 mm 3 mps 746 mmHg 31%
    13:00 +35°C° 0 mm 4 mps 746 mmHg 30%
    14:00 +35°C° 0 mm 3 mps 746 mmHg 31%
    15:00 +34°C° 0 mm 3 mps 745 mmHg 33%
    16:00 +34°C° 0 mm 3 mps 745 mmHg 35%
    17:00 +30°C° 0 mm 3 mps 745 mmHg 44%
    18:00 +27°C° 0 mm 2 mps 745 mmHg 54%
    19:00 +24°C° 0 mm 1 mps 745 mmHg 64%
    20:00 +23°C° 0 mm 1 mps 745 mmHg 68%
    21:00 +22°C° 0 mm 1 mps 745 mmHg 71%
    22:00 +19°C° 0 mm 0 mps 745 mmHg 75%
    23:00 +18°C° 0 mm 0 mps 745 mmHg 75%

    Day after tomorrow, 24 June, Saturday

    Time Temperature Precipitation Wind Pressure Humidity
    00:00 +18°C° 0 mm 0 mps 745 mmHg 75%
    01:00 +18°C° 0 mm 0 mps 745 mmHg 75%
    02:00 +17°C° 0 mm 0 mps 745 mmHg 76%
    03:00 +17°C° 0 mm 0 mps 745 mmHg 76%
    04:00 +17°C° 0 mm 0 mps 745 mmHg 77%
    05:00 +22°C° 0 mm 1 mps 745 mmHg 67%
    06:00 +25°C° 0 mm 1 mps 745 mmHg 56%
    07:00 +28°C° 0 mm 1 mps 745 mmHg 46%
    08:00 +30°C° 0 mm 1 mps 745 mmHg 41%
    09:00 +32°C° 0 mm 1 mps 745 mmHg 36%
    10:00 +34°C° 0 mm 1 mps 745 mmHg 31%
    11:00 +35°C° 0 mm 2 mps 745 mmHg 30%
    12:00 +36°C° 0 mm 2 mps 745 mmHg 28%
    13:00 +37°C° 0 mm 3 mps 744 mmHg 27%
    14:00 +36°C° 0 mm 3 mps 744 mmHg 30%
    15:00 +35°C° 0 mm 3 mps 744 mmHg 32%
    16:00 +35°C° 0 mm 3 mps 744 mmHg 34%
    17:00 +31°C° 0 mm 2 mps 744 mmHg 44%
    18:00 +28°C° 0 mm 2 mps 744 mmHg 54%
    19:00 +25°C° 0 mm 1 mps 744 mmHg 65%
    20:00 +24°C° 0 mm 1 mps 744 mmHg 68%
    21:00 +23°C° 0 mm 1 mps 744 mmHg 70%
    22:00 +20°C° 0 mm 0 mps 744 mmHg 73%
    23:00 +20°C° 0 mm 0 mps 744 mmHg 74%

    25 June, Sunday

    Time Temperature Precipitation Wind Pressure Humidity
    00:00 +20°C° 0 mm 0 mps 744 mmHg 75%
    01:00 +20°C° 0 mm 0 mps 744 mmHg 76%
    02:00 +19°C° 0 mm 0 mps 744 mmHg 78%
    03:00 +19°C° 0 mm 0 mps 744 mmHg 80%
    04:00 +19°C° 0 mm 0 mps 743 mmHg 82%
    05:00 +22°C° 0 mm 0 mps 744 mmHg 71%
    06:00 +25°C° 0 mm 0 mps 744 mmHg 61%
    07:00 +28°C° 0 mm 0 mps 744 mmHg 50%
    08:00 +29°C° 0 mm 0 mps 744 mmHg 45%
    09:00 +33°C° 0 mm 1 mps 744 mmHg 40%
    10:00 +35°C° 0 mm 1 mps 744 mmHg 35%
    11:00 +36°C° 0.4 mm 2 mps 744 mmHg 34%
    12:00 +36°C° 0.4 mm 2 mps 743 mmHg 33%
    13:00 +36°C° 0.4 mm 3 mps 743 mmHg 33%
    14:00 +36°C° 0.2 mm 3 mps 743 mmHg 34%
    15:00 +35°C° 0.2 mm 2 mps 743 mmHg 35%
    16:00 +35°C° 0.2 mm 2 mps 742 mmHg 36%
    17:00 +31°C° 0 mm 2 mps 742 mmHg 45%
    18:00 +28°C° 0 mm 1 mps 742 mmHg 53%
    19:00 +26°C° 0 mm 1 mps 742 mmHg 62%
    20:00 +25°C° 0 mm 1 mps 743 mmHg 63%
    21:00 +23°C° 0 mm 1 mps 743 mmHg 64%
    22:00 +22°C° 0 mm 1 mps 743 mmHg 64%
    23:00 +20°C° 0 mm 0 mps 743 mmHg 67%

    26 June, Monday

    Time Temperature Precipitation Wind Pressure Humidity
    00:00 +19°C° 0 mm 0 mps 743 mmHg 70%
    01:00 +19°C° 0 mm 0 mps 743 mmHg 72%
    02:00 +19°C° 0 mm 0 mps 743 mmHg 72%
    03:00 +20°C° 0 mm 1 mps 743 mmHg 71%
    04:00 +20°C° 0 mm 1 mps 743 mmHg 70%
    05:00 +23°C° 0 mm 1 mps 743 mmHg 60%
    06:00 +26°C° 0 mm 1 mps 743 mmHg 50%
    07:00 +28°C° 0 mm 0 mps 743 mmHg 40%
    08:00 +31°C° 0 mm 1 mps 743 mmHg 36%
    09:00 +33°C° 0 mm 1 mps 743 mmHg 32%
    10:00 +35°C° 0 mm 1 mps 743 mmHg 28%
    11:00 +37°C° 0 mm 2 mps 743 mmHg 28%
    12:00 +37°C° 0 mm 2 mps 743 mmHg 27%
    13:00 +37°C° 0 mm 3 mps 743 mmHg 26%
    14:00 +37°C° 0 mm 3 mps 743 mmHg 29%
    15:00 +36°C° 0 mm 3 mps 742 mmHg 31%
    16:00 +35°C° 0 mm 3 mps 742 mmHg 33%
    17:00 +32°C° 0 mm 2 mps 742 mmHg 43%
    18:00 +29°C° 0 mm 2 mps 742 mmHg 52%
    19:00 +26°C° 0 mm 1 mps 742 mmHg 61%
    20:00 +25°C° 0 mm 1 mps 743 mmHg 64%
    21:00 +24°C° 0 mm 1 mps 743 mmHg 67%
    22:00 +21°C° 0 mm 0 mps 743 mmHg 70%
    23:00 +20°C° 0 mm 0 mps 743 mmHg 70%

    27 June, Tuesday

    Time Temperature Precipitation Wind Pressure Humidity
    00:00 +20°C° 0 mm 0 mps 743 mmHg 70%
    01:00 +20°C° 0 mm 0 mps 743 mmHg 70%
    02:00 +20°C° 0 mm 0 mps 743 mmHg 70%
    03:00 +19°C° 0 mm 0 mps 743 mmHg 71%
    04:00 +19°C° 0 mm 0 mps 743 mmHg 71%
    05:00 +22°C° 0 mm 0 mps 743 mmHg 62%
    06:00 +25°C° 0 mm 0 mps 743 mmHg 52%
    07:00 +28°C° 0 mm 0 mps 744 mmHg 43%
    08:00 +32°C° 0 mm 1 mps 744 mmHg 38%
    09:00 +34°C° 0 mm 1 mps 744 mmHg 34%
    10:00 +36°C° 0 mm 2 mps 744 mmHg 29%
    11:00 +37°C° 0 mm 2 mps 743 mmHg 29%
    12:00 +37°C° 0 mm 3 mps 743 mmHg 28%
    13:00 +38°C° 0 mm 4 mps 743 mmHg 27%
    14:00 +37°C° 0 mm 3 mps 743 mmHg 29%
    15:00 +36°C° 0 mm 3 mps 743 mmHg 31%
    16:00 +36°C° 0 mm 3 mps 743 mmHg 32%
    17:00 +33°C° 0 mm 3 mps 743 mmHg 41%
    18:00 +29°C° 0 mm 2 mps 743 mmHg 51%
    19:00 +27°C° 0 mm 1 mps 743 mmHg 60%
    20:00 +25°C° 0 mm 1 mps 743 mmHg 63%
    21:00 +24°C° 0 mm 1 mps 743 mmHg 66%
    22:00 +23°C° 0 mm 1 mps 743 mmHg 69%
    23:00 +23°C° 0 mm 1 mps 743 mmHg 70%
    Show more